THY4KQ LTAU-LTFM

Flight info

Callsign THY4KQ
Flight time 1h 8m
Altitude 32000
Route KISLA UL605 YAVRU UL615 ERSEN
Aircraft A321/M-SDE3FGHIRWY/LB1

Departure

Time 2026-05-07 10:19
Airport Kayseri Erkilet International Airport (LTAU)

Arrival

Time 2026-05-07 11:28
Airport İstanbul Airport (LTFM)
Time Latitude Longitude Altitude Speed Heading
2026-05-07 09:29 38.76590 35.48153 3458 ft 0 kts 165°
2026-05-07 10:12 38.76602 35.48148 3458 ft 2 kts 162°
2026-05-07 10:12 38.76617 35.48143 3458 ft 2 kts 164°
2026-05-07 10:12 38.76630 35.48137 3458 ft 1 kts 163°
2026-05-07 10:13 38.76637 35.48135 3458 ft 0 kts 208°
2026-05-07 10:13 38.76642 35.48141 3458 ft 1 kts 262°
2026-05-07 10:13 38.76642 35.48159 3458 ft 2 kts 263°
2026-05-07 10:13 38.76644 35.48177 3458 ft 0 kts 259°
2026-05-07 10:14 38.76645 35.48185 3458 ft 1 kts 255°
2026-05-07 10:14 38.76646 35.48186 3458 ft 0 kts 255°
2026-05-07 10:17 38.76642 35.48158 3458 ft 6 kts 270°
2026-05-07 10:17 38.76665 35.48113 3458 ft 6 kts 336°
2026-05-07 10:17 38.76704 35.48101 3458 ft 6 kts 349°
2026-05-07 10:18 38.76745 35.48095 3458 ft 5 kts 13°
2026-05-07 10:18 38.76769 35.48126 3458 ft 4 kts 71°
2026-05-07 10:18 38.76771 35.48138 3458 ft 0 kts 77°
2026-05-07 10:18 38.76780 35.48183 3458 ft 23 kts 77°
2026-05-07 10:19 38.76882 35.48723 3460 ft 102 kts 76°
2026-05-07 10:19 38.77106 35.49906 3465 ft 170 kts 76°
2026-05-07 10:19 38.77419 35.51559 3771 ft 203 kts 76°
2026-05-07 10:19 38.77763 35.53404 4378 ft 226 kts 76°
2026-05-07 10:20 38.78156 35.55480 4801 ft 256 kts 76°
2026-05-07 10:20 38.78592 35.57733 5289 ft 257 kts 75°
2026-05-07 10:20 38.79055 35.59902 5748 ft 255 kts 67°
2026-05-07 10:20 38.80092 35.61754 6243 ft 265 kts 38°
2026-05-07 10:21 38.81744 35.62727 6732 ft 270 kts
2026-05-07 10:21 38.83621 35.62557 7243 ft 273 kts 346°
2026-05-07 10:21 38.85468 35.61944 7734 ft 275 kts 346°
2026-05-07 10:21 38.87326 35.61301 8226 ft 277 kts 341°
2026-05-07 10:22 38.88958 35.60013 8697 ft 280 kts 314°
2026-05-07 10:22 38.89962 35.57932 9173 ft 284 kts 289°
2026-05-07 10:22 38.90439 35.55425 9678 ft 288 kts 283°
2026-05-07 10:22 38.90847 35.52913 10171 ft 290 kts 283°
2026-05-07 10:23 38.91262 35.50360 10666 ft 298 kts 283°
2026-05-07 10:23 38.91697 35.47745 11163 ft 307 kts 283°
2026-05-07 10:23 38.92161 35.45009 11668 ft 316 kts 284°
2026-05-07 10:23 38.92632 35.42257 12161 ft 324 kts 284°
2026-05-07 10:24 38.93119 35.39421 12656 ft 327 kts 284°
2026-05-07 10:24 38.93608 35.36574 13149 ft 330 kts 284°
2026-05-07 10:24 38.94105 35.33697 13643 ft 332 kts 284°
2026-05-07 10:24 38.94606 35.30781 14150 ft 335 kts 284°
2026-05-07 10:25 38.95110 35.27846 14657 ft 337 kts 284°
2026-05-07 10:25 38.95610 35.24928 15164 ft 340 kts 284°
2026-05-07 10:25 38.96117 35.21980 15664 ft 342 kts 284°
2026-05-07 10:25 38.96631 35.18979 16169 ft 344 kts 284°
2026-05-07 10:26 38.97147 35.15970 16671 ft 347 kts 284°
2026-05-07 10:26 38.97659 35.12965 17174 ft 349 kts 284°
2026-05-07 10:26 38.98185 35.09894 17690 ft 352 kts 284°
2026-05-07 10:26 38.98705 35.06838 18194 ft 354 kts 285°
2026-05-07 10:27 38.99236 35.03727 18717 ft 357 kts 284°
2026-05-07 10:27 38.99765 35.00618 19237 ft 360 kts 284°
2026-05-07 10:27 39.00298 34.97468 19767 ft 362 kts 285°
2026-05-07 10:27 39.00829 34.94332 20294 ft 365 kts 285°
2026-05-07 10:28 39.01374 34.91108 20832 ft 367 kts 285°
2026-05-07 10:28 39.01908 34.87937 21366 ft 369 kts 285°
2026-05-07 10:28 39.02454 34.84692 21902 ft 370 kts 285°
2026-05-07 10:28 39.02992 34.81488 22424 ft 371 kts 286°
2026-05-07 10:29 39.03534 34.78254 22956 ft 372 kts 286°
2026-05-07 10:29 39.04079 34.74999 23499 ft 372 kts 286°
2026-05-07 10:29 39.04623 34.71749 24039 ft 372 kts 286°
2026-05-07 10:30 39.05707 34.65260 24974 ft 374 kts 287°
2026-05-07 10:30 39.06251 34.61993 25362 ft 376 kts 287°
2026-05-07 10:30 39.06794 34.58734 25744 ft 378 kts 287°
2026-05-07 10:30 39.07348 34.55407 26137 ft 380 kts 287°
2026-05-07 10:31 39.07899 34.52077 26522 ft 381 kts 287°
2026-05-07 10:31 39.08447 34.48761 26896 ft 383 kts 287°
2026-05-07 10:31 39.08993 34.45444 27272 ft 383 kts 287°
2026-05-07 10:31 39.09545 34.42090 27664 ft 384 kts 287°
2026-05-07 10:32 39.10096 34.38737 28055 ft 384 kts 288°
2026-05-07 10:32 39.10791 34.35426 28439 ft 382 kts 293°
2026-05-07 10:32 39.11711 34.32254 28829 ft 379 kts 297°
2026-05-07 10:32 39.12852 34.29205 29220 ft 377 kts 302°
2026-05-07 10:33 39.14198 34.26324 29620 ft 374 kts 307°
2026-05-07 10:33 39.15721 34.23654 30006 ft 371 kts 312°
2026-05-07 10:33 39.17416 34.21184 30364 ft 370 kts 316°
2026-05-07 10:33 39.19247 34.18815 30611 ft 373 kts 317°
2026-05-07 10:34 39.21007 34.16330 30858 ft 376 kts 314°
2026-05-07 10:34 39.22685 34.13789 31101 ft 378 kts 313°
2026-05-07 10:34 39.24388 34.11176 31346 ft 380 kts 313°
2026-05-07 10:34 39.26099 34.08538 31591 ft 382 kts 313°
2026-05-07 10:35 39.27793 34.05913 31838 ft 384 kts 313°
2026-05-07 10:35 39.29506 34.03260 32075 ft 385 kts 313°
2026-05-07 10:35 39.32970 33.97889 32145 ft 397 kts 312°
2026-05-07 10:36 39.36501 33.92426 32150 ft 398 kts 313°
2026-05-07 10:36 39.40044 33.86947 32151 ft 399 kts 313°
2026-05-07 10:37 39.43592 33.81443 32153 ft 398 kts 313°
2026-05-07 10:37 39.47124 33.75917 32150 ft 399 kts 311°
2026-05-07 10:38 39.50589 33.70334 32151 ft 399 kts 311°
2026-05-07 10:38 39.54060 33.64728 32152 ft 399 kts 311°
2026-05-07 10:39 39.57525 33.59127 32151 ft 399 kts 311°
2026-05-07 10:39 39.61031 33.53607 32145 ft 398 kts 313°
2026-05-07 10:40 39.64571 33.48095 32147 ft 399 kts 313°
2026-05-07 10:40 39.68105 33.42575 32151 ft 400 kts 313°
2026-05-07 10:41 39.71666 33.36993 32152 ft 400 kts 312°
2026-05-07 10:41 39.75194 33.31435 32155 ft 400 kts 311°
2026-05-07 10:42 39.78710 33.25875 32151 ft 400 kts 311°
2026-05-07 10:42 39.82244 33.20293 32154 ft 400 kts 311°
2026-05-07 10:43 39.85760 33.14735 32157 ft 400 kts 311°
2026-05-07 10:43 39.89280 33.09162 32158 ft 401 kts 311°
2026-05-07 10:44 39.92816 33.03553 32164 ft 401 kts 311°
2026-05-07 10:44 39.96355 32.97932 32165 ft 400 kts 311°
2026-05-07 10:45 39.99876 32.92331 32168 ft 401 kts 311°
2026-05-07 10:45 40.03400 32.86716 32166 ft 401 kts 311°
2026-05-07 10:46 40.06877 32.81079 32161 ft 402 kts 309°
2026-05-07 10:46 40.10094 32.75149 32156 ft 402 kts 308°
2026-05-07 10:47 40.13302 32.69154 32152 ft 402 kts 308°
2026-05-07 10:47 40.16479 32.63190 32149 ft 400 kts 308°
2026-05-07 10:48 40.19634 32.57243 32146 ft 400 kts 308°
2026-05-07 10:48 40.22807 32.51244 32148 ft 400 kts 308°
2026-05-07 10:49 40.25953 32.45276 32142 ft 400 kts 308°
2026-05-07 10:49 40.29087 32.39323 32137 ft 400 kts 308°
2026-05-07 10:50 40.32249 32.33296 32134 ft 400 kts 307°
2026-05-07 10:50 40.35372 32.27312 32130 ft 400 kts 307°
2026-05-07 10:51 40.38495 32.21332 32133 ft 399 kts 307°
2026-05-07 10:51 40.41640 32.15310 32129 ft 399 kts 307°
2026-05-07 10:52 40.44759 32.09314 32122 ft 399 kts 307°
2026-05-07 10:52 40.47860 32.03339 32124 ft 398 kts 307°
2026-05-07 10:53 40.50969 31.97328 32121 ft 398 kts 307°
2026-05-07 10:53 40.54071 31.91326 32124 ft 399 kts 307°
2026-05-07 10:54 40.56924 31.85059 32127 ft 401 kts 301°
2026-05-07 10:54 40.59274 31.78410 32127 ft 403 kts 296°
2026-05-07 10:55 40.61132 31.71478 32129 ft 405 kts 293°
2026-05-07 10:55 40.62874 31.64461 32130 ft 405 kts 292°
2026-05-07 10:56 40.64603 31.57452 32128 ft 405 kts 292°
2026-05-07 10:56 40.66337 31.50400 32128 ft 405 kts 293°
2026-05-07 10:57 40.68066 31.43357 31887 ft 405 kts 292°
2026-05-07 10:57 40.68930 31.39834 31674 ft 405 kts 292°
2026-05-07 10:57 40.69788 31.36326 31461 ft 405 kts 292°
2026-05-07 10:58 40.70655 31.32772 31246 ft 405 kts 292°
2026-05-07 10:58 40.71510 31.29244 31035 ft 406 kts 292°
2026-05-07 10:58 40.72368 31.25695 30818 ft 407 kts 292°
2026-05-07 10:58 40.73224 31.22159 30605 ft 408 kts 292°
2026-05-07 10:59 40.74089 31.18590 30393 ft 408 kts 292°
2026-05-07 10:59 40.74945 31.15049 30124 ft 409 kts 292°
2026-05-07 10:59 40.75804 31.11493 29858 ft 410 kts 291°
2026-05-07 10:59 40.76672 31.07903 29586 ft 409 kts 291°
2026-05-07 11:00 40.77528 31.04353 29318 ft 407 kts 291°
2026-05-07 11:00 40.78377 31.00819 29036 ft 406 kts 291°
2026-05-07 11:00 40.79218 30.97305 28711 ft 396 kts 291°
2026-05-07 11:00 40.80031 30.93910 28355 ft 390 kts 291°
2026-05-07 11:01 40.80845 30.90517 27959 ft 387 kts 291°
2026-05-07 11:01 40.81652 30.87153 27566 ft 385 kts 291°
2026-05-07 11:01 40.82406 30.83797 27281 ft 386 kts 287°
2026-05-07 11:01 40.82743 30.80247 27019 ft 390 kts 279°
2026-05-07 11:02 40.82896 30.76706 26619 ft 389 kts 278°
2026-05-07 11:02 40.83033 30.73117 26105 ft 387 kts 278°
2026-05-07 11:02 40.83180 30.69620 25586 ft 383 kts 278°
2026-05-07 11:02 40.83340 30.66129 25067 ft 380 kts 278°
2026-05-07 11:03 40.83509 30.62679 24543 ft 377 kts 279°
2026-05-07 11:03 40.83682 30.59265 24019 ft 375 kts 279°
2026-05-07 11:03 40.83860 30.55841 23485 ft 372 kts 279°
2026-05-07 11:03 40.84036 30.52457 22968 ft 370 kts 278°
2026-05-07 11:04 40.84213 30.49110 22466 ft 367 kts 279°
2026-05-07 11:04 40.84392 30.45702 21948 ft 366 kts 278°
2026-05-07 11:04 40.84567 30.42385 21460 ft 364 kts 278°
2026-05-07 11:04 40.84740 30.39074 20951 ft 362 kts 278°
2026-05-07 11:05 40.84912 30.35764 20439 ft 360 kts 278°
2026-05-07 11:05 40.85080 30.32498 19942 ft 359 kts 277°
2026-05-07 11:05 40.85248 30.29218 19439 ft 357 kts 277°
2026-05-07 11:05 40.85414 30.25972 18934 ft 356 kts 277°
2026-05-07 11:06 40.85578 30.22733 18433 ft 355 kts 277°
2026-05-07 11:06 40.85744 30.19470 17916 ft 353 kts 277°
2026-05-07 11:06 40.85906 30.16237 17409 ft 352 kts 277°
2026-05-07 11:06 40.86067 30.13034 16896 ft 351 kts 277°
2026-05-07 11:07 40.86228 30.09804 16387 ft 350 kts 277°
2026-05-07 11:07 40.86386 30.06627 15883 ft 349 kts 277°
2026-05-07 11:07 40.86544 30.03431 15395 ft 348 kts 276°
2026-05-07 11:07 40.86698 30.00296 14979 ft 345 kts 276°
2026-05-07 11:08 40.86852 29.97122 14596 ft 340 kts 276°
2026-05-07 11:08 40.87002 29.94026 14221 ft 337 kts 276°
2026-05-07 11:08 40.87150 29.90960 13868 ft 336 kts 276°
2026-05-07 11:08 40.87297 29.87897 13509 ft 335 kts 276°
2026-05-07 11:09 40.87443 29.84851 13122 ft 333 kts 276°
2026-05-07 11:09 40.87586 29.81825 12848 ft 332 kts 276°
2026-05-07 11:09 40.87729 29.78792 12552 ft 330 kts 276°
2026-05-07 11:09 40.87872 29.75757 12264 ft 329 kts 276°
2026-05-07 11:10 40.88010 29.72765 11999 ft 327 kts 276°
2026-05-07 11:10 40.88149 29.69784 11670 ft 325 kts 276°
2026-05-07 11:10 40.88286 29.66818 11384 ft 323 kts 276°
2026-05-07 11:10 40.88421 29.63879 11091 ft 322 kts 276°
2026-05-07 11:11 40.88555 29.60930 10852 ft 321 kts 276°
2026-05-07 11:11 40.88689 29.57991 10602 ft 320 kts 276°
2026-05-07 11:11 40.88820 29.55071 10361 ft 318 kts 276°
2026-05-07 11:11 40.88952 29.52154 10113 ft 317 kts 276°
2026-05-07 11:12 40.89082 29.49244 9862 ft 316 kts 276°
2026-05-07 11:12 40.89210 29.46369 9608 ft 315 kts 276°
2026-05-07 11:12 40.89336 29.43503 9357 ft 313 kts 276°
2026-05-07 11:12 40.89465 29.40591 9106 ft 310 kts 275°
2026-05-07 11:13 40.89587 29.37795 8858 ft 303 kts 275°
2026-05-07 11:13 40.89705 29.35038 8607 ft 296 kts 275°
2026-05-07 11:13 40.89820 29.32348 8361 ft 290 kts 275°
2026-05-07 11:13 40.89934 29.29695 8108 ft 285 kts 275°
2026-05-07 11:14 40.90043 29.27110 7868 ft 279 kts 275°
2026-05-07 11:14 40.90152 29.24564 7658 ft 273 kts 275°
2026-05-07 11:14 40.90257 29.22083 7502 ft 265 kts 275°
2026-05-07 11:14 40.90356 29.19701 7362 ft 257 kts 275°
2026-05-07 11:15 40.90455 29.17363 7213 ft 249 kts 275°
2026-05-07 11:15 40.90548 29.15136 7074 ft 240 kts 275°
2026-05-07 11:15 40.90639 29.12966 6913 ft 234 kts 275°
2026-05-07 11:15 40.90729 29.10829 6742 ft 233 kts 274°
2026-05-07 11:16 40.90817 29.08697 6542 ft 232 kts 274°
2026-05-07 11:16 40.90904 29.06568 6316 ft 232 kts 274°
2026-05-07 11:16 40.90991 29.04446 6070 ft 230 kts 274°
2026-05-07 11:16 40.91076 29.02341 5825 ft 228 kts 274°
2026-05-07 11:17 40.91191 29.00275 5582 ft 225 kts 277°
2026-05-07 11:17 40.91367 28.98214 5334 ft 223 kts 277°
2026-05-07 11:17 40.91547 28.96183 5089 ft 222 kts 277°
2026-05-07 11:17 40.91725 28.94163 4845 ft 220 kts 277°
2026-05-07 11:18 40.91900 28.92184 4608 ft 218 kts 277°
2026-05-07 11:18 40.92077 28.90171 4364 ft 217 kts 277°
2026-05-07 11:18 40.92249 28.88198 4147 ft 215 kts 277°
2026-05-07 11:18 40.92419 28.86241 4022 ft 212 kts 277°
2026-05-07 11:19 40.92586 28.84306 3973 ft 212 kts 277°
2026-05-07 11:19 40.92754 28.82367 3967 ft 212 kts 277°
2026-05-07 11:19 40.92985 28.80451 3954 ft 211 kts 289°
2026-05-07 11:19 40.93818 28.78906 3950 ft 212 kts 322°
2026-05-07 11:20 40.95068 28.77884 3963 ft 206 kts 328°
2026-05-07 11:20 40.96283 28.76964 4003 ft 189 kts 328°
2026-05-07 11:20 40.97440 28.76217 3996 ft 185 kts 343°
2026-05-07 11:20 40.98676 28.76101 3952 ft 170 kts 356°
2026-05-07 11:21 40.99828 28.76108 3970 ft 161 kts 357°
2026-05-07 11:21 41.00937 28.76115 3955 ft 155 kts 356°
2026-05-07 11:21 41.02016 28.76112 3960 ft 155 kts 356°
2026-05-07 11:21 41.03102 28.76101 3961 ft 155 kts 355°
2026-05-07 11:22 41.04178 28.76084 3959 ft 152 kts 355°
2026-05-07 11:22 41.05228 28.76067 3955 ft 150 kts 355°
2026-05-07 11:22 41.06266 28.76049 3958 ft 149 kts 355°
2026-05-07 11:22 41.07298 28.76029 3960 ft 149 kts 355°
2026-05-07 11:23 41.08332 28.76009 3959 ft 149 kts 355°
2026-05-07 11:23 41.09375 28.75990 3833 ft 149 kts 355°
2026-05-07 11:23 41.10413 28.75971 3656 ft 148 kts 355°
2026-05-07 11:23 41.11445 28.75951 3483 ft 148 kts 355°
2026-05-07 11:24 41.12468 28.75933 3314 ft 148 kts 355°
2026-05-07 11:24 41.13497 28.75914 3144 ft 148 kts 355°
2026-05-07 11:24 41.14524 28.75895 2988 ft 147 kts 355°
2026-05-07 11:24 41.15560 28.75874 2979 ft 147 kts 355°
2026-05-07 11:25 41.16591 28.75855 2921 ft 148 kts 355°
2026-05-07 11:25 41.17615 28.75834 2712 ft 147 kts 356°
2026-05-07 11:25 41.18631 28.75814 2470 ft 146 kts 356°
2026-05-07 11:25 41.19644 28.75793 2214 ft 146 kts 357°
2026-05-07 11:26 41.20664 28.75773 1915 ft 145 kts 358°
2026-05-07 11:26 41.21668 28.75753 1622 ft 144 kts 358°
2026-05-07 11:26 41.22667 28.75733 1308 ft 143 kts 359°
2026-05-07 11:26 41.23658 28.75717 1011 ft 142 kts
2026-05-07 11:27 41.24648 28.75710 747 ft 141 kts
2026-05-07 11:27 41.25626 28.75678 564 ft 141 kts
2026-05-07 11:27 41.26607 28.75661 343 ft 139 kts
2026-05-07 11:27 41.27426 28.75651 333 ft 83 kts 360°
2026-05-07 11:28 41.27888 28.75637 333 ft 43 kts 352°
2026-05-07 11:28 41.28110 28.75522 333 ft 20 kts 329°
2026-05-07 11:28 41.28152 28.75384 333 ft 12 kts 239°
2026-05-07 11:28 41.28100 28.75350 333 ft 0 kts 184°
2026-05-07 11:29 41.28067 28.75349 333 ft 17 kts 180°
2026-05-07 11:29 41.27927 28.75351 333 ft 20 kts 180°
2026-05-07 11:30 41.27788 28.75354 333 ft 20 kts 179°
2026-05-07 11:30 41.27648 28.75357 333 ft 19 kts 179°
2026-05-07 11:30 41.27507 28.75360 333 ft 20 kts 179°
2026-05-07 11:30 41.27363 28.75361 333 ft 20 kts 179°
2026-05-07 11:31 41.27221 28.75365 333 ft 20 kts 179°
2026-05-07 11:31 41.27085 28.75356 333 ft 18 kts 208°
2026-05-07 11:31 41.27011 28.75255 333 ft 14 kts 191°
2026-05-07 11:31 41.26898 28.75255 333 ft 22 kts 179°
2026-05-07 11:32 41.26584 28.75261 333 ft 22 kts 179°
2026-05-07 11:32 41.26422 28.75264 333 ft 24 kts 179°
2026-05-07 11:32 41.26253 28.75267 333 ft 23 kts 179°
2026-05-07 11:33 41.26088 28.75270 333 ft 23 kts 179°
2026-05-07 11:33 41.25930 28.75272 333 ft 22 kts 180°
2026-05-07 11:33 41.25774 28.75276 333 ft 22 kts 179°
2026-05-07 11:33 41.25646 28.75253 333 ft 16 kts 231°
2026-05-07 11:34 41.25633 28.75097 333 ft 17 kts 270°
2026-05-07 11:34 41.25632 28.74978 333 ft 6 kts 270°
2026-05-07 11:34 41.25650 28.74932 333 ft 6 kts 331°
2026-05-07 11:34 41.25696 28.74926 333 ft 6 kts
2026-05-07 11:35 41.25728 28.74926 333 ft 0 kts 359°